Wind_Speed
18 18 18 19 19 18 18 19 20 19 17 17 17 17 17 17 18 19 19 19 19 20 21 21 21 20 20 21 21 22 23 29 30 28 26 26 29 26 29 28 26 23 24 22 22
20 20 21 20 20 20 20 20 20 20 19 18 17 18 19 18 19 20 21 20 19 18 20 21 21 21 21 22 23 24 28 30 30 28 30 29 31 30 33 32 27 25 22 23 24
24 24 23 22 22 22 22 22 23 22 21 19 19 19 19 17 18 22 19 18 17 16 18 20 20 22 22 23 25 29 32 30 30 30 32 34 33 34 36 38 29 28 24 22 21
25 26 26 25 24 23 23 24 23 24 23 21 20 21 21 20 13 13 14 14 15 16 16 16 16 16 18 19 21 25 27 26 28 28 31 33 34 32 34 34 30 30 27 24 22
28 27 26 27 26 26 25 25 25 25 24 23 21 21 21 21 19 19 20 18 18 19 21 21 20 21 22 23 25 26 27 27 29 30 31 32 34 32 34 25 26 27 27 24 23
37 32 27 30 31 29 26 25 27 26 25 23 21 20 20 20 20 15 18 18 18 19 21 22 22 21 22 23 23 26 27 28 29 30 32 34 33 33 32 26 30 28 27 25 24
32 29 27 31 29 28 26 25 27 26 24 23 21 18 18 18 17 16 16 16 17 17 18 20 20 20 21 19 21 21 24 23 23 23 23 26 28 23 17 20 25 25 24 24 23
26 22 24 26 24 22 24 26 27 25 24 21 21 18 17 17 16 16 16 17 16 16 16 17 17 18 18 17 18 19 23 18 14 18 17 20 20 22 20 24 25 28 30 28 26
29 26 26 23 21 22 22 23 25 26 23 21 20 17 17 17 16 15 16 15 14 13 14 13 12 14 16 14 16 13 14 18 21 15 20 21 26 27 20 19 27 26 25 27 28
25 24 17 24 22 24 23 24 26 24 25 20 19 15 16 13 12 12 11 11 11 12 12 11 9 9 8 9 5 9 18 21 23 21 26 28 31 29 26 27 28 26 24 25 27
26 26 22 22 28 25 23 21 22 23 20 18 16 9 11 9 12 12 11 11 11 11 11 10 10 11 10 10 12 16 20 23 26 25 29 31 34 37 32 33 28 24 25 26 27
34 34 30 28 32 30 26 20 21 23 24 19 18 17 19 11 11 13 13 13 13 12 11 10 12 13 13 14 13 15 17 20 24 14 28 38 43 40 20 14 21 25 23 25 27
37 37 31 32 33 27 28 26 24 22 23 22 20 19 16 20 16 17 15 15 13 11 10 9 9 11 13 14 15 14 16 17 20 27 28 30 30 2 21 5 3 6 19 27 30
41 38 34 35 35 27 27 28 22 19 13 11 11 12 20 18 13 13 15 15 13 10 9 8 10 11 12 12 13 14 15 16 21 24 13 17 17 19 7 16 17 11 13 18 22
40 38 34 32 27 30 28 22 16 12 4 6 8 9 15 16 12 10 11 11 9 7 6 6 9 13 15 15 13 11 15 20 24 26 23 8 9 10 24 12 18 25 35 38 38
37 38 37 36 32 29 24 20 21 7 7 9 10 15 17 16 11 11 9 10 7 6 5 7 8 9 8 10 13 17 20 22 15 12 5 2 4 15 17 28 39 36 34 36 36
38 36 37 32 26 26 25 23 11 8 7 9 13 17 17 17 12 10 11 9 7 4 5 5 8 6 6 6 13 16 19 6 3 1 3 5 10 15 22 30 31 34 36 39 37
36 30 35 37 30 31 30 26 9 8 15 11 15 20 18 17 14 14 12 10 7 6 5 4 3 3 4 12 10 7 9 1 4 3 10 19 6 7 22 24 25 30 33 39 29
35 36 33 33 28 25 24 17 15 15 22 18 20 21 18 19 12 15 12 9 7 5 5 3 3 5 9 4 9 3 2 2 5 10 8 5 8 20 10 21 26 35 29 29 29
36 32 34 31 35 29 29 25 19 19 18 24 21 19 22 22 15 13 10 6 6 6 4 5 2 5 5 5 6 5 2 1 4 3 4 7 13 8 18 28 36 32 31 30 23
34 33 40 31 35 36 38 30 19 20 20 25 24 21 18 22 17 15 9 9 9 5 2 2 2 3 3 3 6 4 2 0 5 6 3 4 5 11 15 33 36 28 23 31 28
43 36 35 37 34 38 41 29 25 22 21 23 19 20 19 18 17 17 14 11 9 5 3 5 3 3 2 4 2 5 2 2 2 3 7 7 9 10 19 36 32 22 21 26 29
42 41 29 34 33 36 28 29 28 23 23 21 20 21 19 18 12 16 14 13 9 5 5 3 4 2 4 3 5 6 5 6 9 10 12 5 7 14 30 29 22 24 32 32 33
45 33 31 33 34 33 28 32 27 27 26 23 21 18 18 18 17 14 15 13 8 7 6 5 6 6 6 3 9 11 12 15 10 8 12 18 30 22 26 24 23 28 32 31 31
45 35 40 39 41 30 33 24 31 26 25 22 20 20 22 20 19 16 16 13 10 7 6 5 3 8 11 14 16 17 16 12 12 13 12 16 22 27 23 27 26 29 31 31 33
45 41 38 30 32 34 34 31 29 29 25 26 24 22 19 16 17 18 18 16 8 11 6 2 3 7 6 1 5 6 9 10 12 13 18 20 21 20 21 27 27 27 30 31 33
42 41 28 27 31 37 40 32 28 28 24 19 20 17 17 14 13 17 15 13 9 8 4 3 1 4 2 4 8 5 8 7 12 15 17 16 18 25 26 27 30 28 28 32 33
Wind_Direction
271 275 278 282 281 279 281 281 282 278 277 280 277 276 277 283 288 287 288 289 281 275 271 266 264 262 262 261 261 261 256 259 264 271 277 281 282 280 279 277 275 271 273 271 266
269 271 272 274 279 283 283 283 283 284 283 282 284 281 279 283 286 284 286 286 285 277 271 268 263 260 258 260 262 261 263 268 273 277 279 272 273 278 279 276 271 276 275 275 262
273 274 272 273 275 280 284 286 287 287 283 285 284 286 282 286 291 287 286 284 280 273 268 264 262 262 261 263 264 265 265 273 273 276 275 275 271 275 276 279 282 279 271 266 257
268 270 273 275 278 279 282 284 287 287 284 280 279 280 285 285 290 289 288 282 279 274 267 261 261 260 264 264 268 268 272 278 279 277 277 280 280 274 275 279 287 284 281 273 267
265 267 274 273 275 277 278 283 285 288 284 280 274 273 277 278 279 282 281 275 270 268 267 264 265 266 267 270 270 274 277 276 279 280 280 282 281 285 274 282 283 286 283 276 267
259 261 266 268 274 274 275 276 280 282 280 276 273 271 274 279 278 278 274 271 263 264 268 271 270 268 269 271 272 272 274 277 278 283 283 284 284 278 287 281 277 274 274 275 267
251 256 266 273 274 269 268 269 273 273 270 272 270 267 269 270 272 269 264 262 263 263 265 271 275 278 277 275 272 277 281 281 288 289 287 284 287 291 277 269 264 272 272 269 269
255 250 257 266 259 266 266 272 267 266 262 261 265 268 272 265 264 261 261 258 258 261 263 263 267 268 270 267 271 280 287 288 270 290 293 287 282 285 278 279 265 266 273 269 266
257 257 248 246 259 280 280 281 275 266 258 263 258 262 267 263 258 255 253 256 254 252 256 267 272 271 269 272 279 283 272 285 299 302 292 291 285 288 285 278 287 289 280 276 274
253 252 233 247 265 274 281 279 282 292 269 270 268 261 246 246 250 247 246 244 252 257 265 272 281 278 273 274 265 278 295 300 307 310 296 292 288 291 295 296 296 296 293 284 279
248 254 236 240 256 261 274 271 274 283 282 268 266 262 247 240 237 238 238 240 250 257 255 257 264 265 268 271 271 280 288 296 299 308 299 298 298 300 301 301 300 289 281 276 272
247 239 246 249 259 261 266 277 278 279 280 273 259 253 247 232 233 234 236 244 252 251 244 244 250 256 260 267 275 288 295 295 303 290 294 303 304 309 305 305 301 294 286 281 277
256 258 254 254 258 260 266 268 270 273 285 275 263 249 247 240 243 240 241 247 250 251 250 247 254 252 258 268 275 286 290 298 306 312 311 313 312 259 328 317 211 281 301 299 297
249 256 254 257 249 254 266 254 247 263 289 276 245 230 232 228 233 231 229 239 250 243 241 253 242 263 281 291 296 295 289 299 305 315 317 320 293 300 276 333 327 320 314 313 306
246 249 253 242 259 263 256 239 229 235 276 232 214 200 209 208 202 203 214 235 241 250 255 241 258 279 292 298 299 284 288 300 307 304 301 316 266 289 294 331 329 321 321 318 312
239 243 248 259 257 260 260 243 221 176 251 196 187 182 180 186 183 195 215 224 237 265 271 257 263 282 287 295 307 307 307 314 297 285 262 158 332 303 342 336 339 337 332 327 322
240 241 238 241 248 253 245 219 153 194 186 199 190 182 189 184 179 192 211 226 221 200 203 254 267 263 292 304 309 312 329 335 304 224 280 241 325 272 312 321 327 325 325 324 315
244 232 239 232 245 252 231 180 173 224 190 182 183 180 184 183 196 206 220 225 222 240 247 235 211 213 305 327 327 341 14 117 282 283 296 302 252 302 323 322 316 317 316 321 318
233 232 231 228 233 223 208 187 205 210 205 184 173 184 184 191 204 204 223 234 237 232 203 203 215 173 300 290 322 278 356 268 275 281 279 268 273 309 343 336 328 336 336 333 329
226 222 234 224 229 211 209 215 192 195 194 198 184 190 192 195 198 200 206 203 204 206 231 219 247 234 215 281 268 284 234 274 203 267 267 287 297 269 322 335 336 345 343 343 330
214 215 230 219 212 201 205 202 197 197 191 193 202 199 198 197 204 203 200 201 213 225 234 227 143 217 261 222 249 199 193 54 230 240 264 301 297 292 317 333 337 345 345 350 353
214 213 222 226 197 200 202 202 205 202 198 201 203 207 202 199 203 206 210 214 195 215 217 170 168 225 166 169 185 212 231 265 223 257 268 269 277 271 317 322 327 343 347 353 349
202 209 216 218 204 209 200 202 210 210 209 210 207 207 211 207 200 210 209 210 206 197 189 176 172 151 128 189 195 213 265 269 288 274 252 257 266 303 310 312 312 316 326 331 334
217 185 191 198 206 209 189 199 202 207 213 213 214 210 217 205 211 202 193 189 187 193 209 221 208 204 203 216 260 263 264 279 272 255 278 270 289 304 308 316 318 315 319 326 328
214 203 216 211 208 200 200 207 200 201 209 212 216 223 221 198 195 188 185 175 187 190 190 218 232 255 269 278 276 275 271 264 265 274 272 288 294 300 300 308 315 313 315 322 329
203 208 211 216 205 195 193 200 205 211 217 212 213 209 206 213 204 197 183 180 178 178 197 221 235 295 325 106 337 291 264 264 283 284 279 287 299 276 298 310 309 312 320 324 329
207 219 218 210 199 193 195 199 204 207 210 214 215 207 192 190 182 157 170 180 178 176 162 187 283 327 241 312 320 279 262 288 298 297 292 289 291 303 310 306 310 322 319 318 322
Height
3132 3133 3133 3133 3132 3131 3131 3131 3131 3130 3129 3130 3130 3129 3129 3129 3128 3128 3128 3129 3128 3127 3128 3127 3128 3128 3128 3129 3130 3129 3130 3129 3129 3132 3132 3131 3130 3132 3129 3130 3131 3134 3133 3134 3134
3128 3128 3128 3128 3128 3128 3127 3127 3127 3127 3127 3126 3126 3126 3125 3125 3124 3124 3124 3123 3124 3124 3123 3123 3124 3124 3125 3125 3125 3125 3124 3124 3126 3127 3126 3127 3125 3125 3123 3123 3127 3128 3130 3130 3130
3124 3124 3124 3124 3124 3124 3123 3123 3123 3123 3123 3123 3122 3122 3122 3121 3121 3119 3119 3119 3118 3118 3119 3119 3119 3120 3121 3121 3121 3119 3118 3120 3121 3122 3120 3119 3121 3120 3117 3116 3122 3122 3123 3124 3125
3119 3119 3120 3121 3120 3118 3118 3118 3118 3118 3118 3118 3118 3118 3118 3117 3119 3115 3116 3116 3115 3114 3115 3115 3115 3116 3117 3118 3117 3116 3115 3115 3114 3115 3115 3113 3112 3114 3113 3114 3116 3115 3117 3118 3119
3114 3114 3116 3115 3115 3114 3114 3114 3114 3114 3112 3112 3111 3112 3113 3113 3113 3112 3112 3111 3111 3110 3111 3110 3111 3112 3112 3113 3112 3111 3111 3110 3110 3110 3109 3108 3107 3107 3105 3112 3110 3109 3109 3111 3112
3108 3109 3110 3110 3110 3110 3110 3109 3110 3109 3109 3107 3106 3106 3107 3109 3108 3108 3107 3107 3107 3106 3107 3107 3106 3106 3107 3107 3108 3106 3106 3106 3105 3106 3103 3102 3102 3100 3103 3105 3102 3103 3103 3104 3106
3100 3102 3103 3104 3103 3104 3105 3103 3104 3104 3103 3103 3102 3100 3102 3104 3103 3102 3103 3103 3103 3103 3103 3103 3103 3104 3103 3103 3101 3102 3101 3101 3102 3100 3098 3096 3095 3096 3095 3096 3096 3096 3097 3097 3098
3094 3095 3095 3097 3097 3098 3098 3097 3097 3097 3099 3097 3098 3096 3097 3098 3097 3098 3099 3099 3099 3099 3099 3100 3100 3100 3099 3099 3098 3098 3097 3095 3096 3096 3097 3093 3091 3093 3094 3093 3093 3091 3091 3091 3092
3086 3088 3088 3091 3092 3093 3093 3092 3093 3093 3092 3092 3093 3092 3093 3093 3093 3094 3095 3096 3096 3096 3096 3097 3098 3098 3097 3096 3095 3094 3094 3092 3091 3094 3092 3092 3086 3089 3089 3089 3087 3087 3086 3086 3086
3080 3081 3084 3085 3086 3087 3087 3087 3088 3089 3088 3089 3089 3091 3089 3089 3088 3090 3091 3092 3093 3093 3094 3094 3095 3096 3095 3093 3094 3093 3093 3090 3089 3089 3085 3085 3083 3082 3084 3082 3081 3080 3080 3079 3079
3074 3076 3077 3079 3080 3082 3084 3083 3085 3086 3084 3085 3086 3085 3085 3085 3085 3086 3088 3091 3091 3091 3090 3091 3092 3094 3094 3091 3092 3091 3090 3087 3087 3086 3078 3077 3075 3076 3077 3075 3075 3073 3071 3069 3070
3067 3068 3070 3073 3074 3077 3078 3079 3081 3079 3077 3079 3079 3082 3082 3082 3083 3084 3086 3088 3089 3089 3089 3090 3089 3089 3089 3087 3088 3087 3088 3087 3084 3083 3077 3071 3067 3068 3068 3069 3066 3063 3063 3063 3063
3060 3060 3064 3066 3069 3072 3073 3075 3075 3073 3072 3072 3073 3076 3078 3080 3079 3080 3084 3084 3085 3086 3087 3088 3090 3088 3087 3085 3086 3083 3083 3081 3081 3078 3075 3066 3061 3063 3065 3063 3062 3060 3060 3059 3056
3052 3054 3057 3059 3064 3064 3067 3067 3069 3069 3072 3067 3067 3068 3070 3074 3077 3077 3079 3083 3084 3084 3084 3085 3087 3086 3086 3084 3084 3083 3081 3079 3079 3078 3074 3073 3058 3061 3059 3059 3058 3057 3054 3051 3049
3042 3047 3050 3052 3054 3058 3060 3059 3062 3065 3070 3065 3064 3063 3065 3071 3070 3073 3076 3079 3081 3083 3084 3083 3083 3084 3083 3083 3079 3080 3079 3077 3077 3075 3071 3070 3071 3055 3055 3053 3053 3051 3048 3044 3041
3033 3037 3042 3046 3047 3052 3052 3055 3059 3067 3063 3060 3058 3061 3062 3065 3066 3068 3074 3078 3078 3079 3079 3079 3079 3081 3079 3079 3078 3078 3075 3072 3070 3071 3069 3066 3068 3051 3053 3049 3046 3045 3042 3037 3033
3024 3028 3034 3039 3043 3044 3046 3050 3056 3059 3055 3056 3057 3059 3060 3063 3064 3067 3070 3072 3076 3077 3077 3078 3077 3076 3077 3077 3077 3077 3071 3067 3067 3067 3066 3066 3063 3055 3052 3049 3045 3041 3037 3030 3026
3017 3023 3025 3030 3033 3038 3039 3043 3048 3049 3048 3049 3053 3056 3057 3060 3064 3066 3068 3068 3069 3072 3074 3076 3074 3074 3075 3076 3077 3075 3073 3073 3071 3070 3066 3063 3057 3054 3052 3049 3045 3042 3034 3025 3020
3009 3014 3017 3021 3026 3029 3034 3035 3033 3041 3044 3044 3050 3053 3053 3058 3063 3064 3064 3064 3064 3068 3073 3070 3070 3071 3072 3072 3076 3075 3076 3074 3074 3073 3069 3059 3055 3051 3049 3047 3043 3037 3027 3021 3015
3000 3008 3010 3012 3017 3021 3027 3028 3030 3037 3038 3043 3041 3046 3051 3055 3057 3058 3058 3061 3062 3066 3067 3065 3066 3069 3070 3071 3072 3073 3074 3073 3072 3073 3066 3056 3053 3049 3047 3042 3038 3032 3026 3021 3016
2989 2996 3004 3003 3007 3011 3016 3021 3026 3033 3035 3038 3036 3040 3047 3051 3051 3053 3054 3057 3060 3062 3062 3061 3063 3067 3067 3067 3068 3072 3072 3070 3070 3070 3063 3056 3050 3048 3046 3041 3036 3032 3028 3023 3017
2980 2987 2993 2999 3001 3004 3007 3016 3022 3028 3029 3031 3034 3037 3043 3045 3046 3050 3050 3055 3057 3058 3058 3057 3060 3063 3064 3063 3066 3068 3068 3067 3067 3067 3062 3060 3050 3045 3043 3038 3035 3032 3028 3023 3019
2966 2983 2986 2991 2993 2997 3004 3013 3017 3023 3026 3028 3030 3034 3039 3041 3045 3046 3048 3051 3053 3055 3056 3056 3058 3061 3062 3065 3064 3065 3065 3065 3064 3062 3058 3056 3047 3044 3042 3038 3033 3030 3025 3022 3017
2967 2967 2977 2983 2988 2994 3001 3007 3012 3018 3021 3024 3028 3031 3036 3037 3040 3042 3045 3049 3050 3052 3052 3055 3055 3056 3057 3059 3061 3060 3060 3060 3060 3057 3053 3050 3041 3042 3038 3033 3030 3026 3022 3019 3014
2959 2961 2968 2972 2981 2990 2999 3003 3008 3012 3016 3021 3023 3029 3032 3033 3036 3038 3041 3045 3048 3049 3050 3053 3053 3053 3053 3054 3053 3053 3054 3054 3053 3051 3050 3046 3042 3037 3033 3029 3027 3022 3018 3015 3011
2949 2957 2964 2971 2978 2986 2993 2999 3003 3007 3013 3017 3021 3025 3028 3029 3031 3030 3036 3042 3044 3046 3049 3048 3051 3050 3049 3049 3049 3049 3049 3049 3048 3047 3045 3042 3038 3034 3032 3027 3022 3020 3015 3011 3007
2948 2955 2965 2967 2972 2980 2985 2993 2999 3006 3011 3015 3019 3022 3025 3028 3030 3031 3035 3040 3043 3045 3045 3048 3048 3047 3047 3047 3046 3047 3045 3046 3044 3043 3041 3038 3035 3031 3029 3024 3017 3015 3013 3008 3004